Content
SEND FEEDBACK

Daily
Averages
Monthly
Summary
United States of America

NAPERVILLE, ILLINOIS


Home > North America > United States > Illinois
Elevation: 687 feet     Latitude: 41 49N     Longitude: 088 04W

WEATHER
 
SELECT A DAY
Number of Records: 196,755;   Date Range: 1/1/95 - 9/16/14
 
SHARE

PRINT THIS DATA

[ ← Previous Day ]
WEATHER ALMANAC - AUGUST 25, 2013
[ Next Day → ]
[ °C ]   °F
Weather ElementAverageHighLow
Temperature78.6 °F89.1 °F (3:51 pm)64.9 °F (4:51 am)
Dewpoint62.1 °F66.9 °F (1:51 pm)54 °F (4:51 am)
Humidity57.3 %68 % (3:51 am)48 % (2:51 pm)
Barometer30.18 in30.24 in (7:51 am)30.12 in (6:51 pm)
Wind Speed9.7 mph17.3 mph (2:51 pm)
Wind Gust20.7 mph (2:51 pm)
Weather ElementAverage
Visibility10 mi
Wind DirectionSSW (213.5 °)

Weather ElementTotal
Precipitation---
Cooling Degree Days12 (Base 65)
Growing Degree Days27 (Base 50)
Averaged from 23 records on August 25, 2013
WEATHER CONDITIONS BREAKOUT
WIND DIRECTION BREAKOUT
WEATHER BY HOUR - AUGUST 25, 2013
[ °C ]   °F
Local TimeTemperatureDewpointHumidityBarometerVisibilityWind DirectionWind SpeedGust SpeedPrecipitationEventsConditions
1:51 AM66.9 °F55.0 °F66 %30.21 in10.0 miSouth (180°)5.8 mphClear
2:51 AM66.9 °F55.0 °F66 %30.21 in10.0 miSouth (180°)5.8 mphClear
3:51 AM66.0 °F55.0 °F68 %30.20 in10.0 miSouth (180°)5.8 mphClear
4:51 AM64.9 °F54.0 °F68 %30.21 in10.0 miSouth (180°)4.6 mphPartly Cloudy
5:51 AM66.9 °F54.0 °F63 %30.22 in10.0 miSouth (190°)4.6 mphPartly Cloudy
6:51 AM69.1 °F55.0 °F61 %30.23 in10.0 miSW (220°)3.5 mphScattered Clouds
7:51 AM72.0 °F55.9 °F57 %30.24 in10.0 miSW (220°)6.9 mphMostly Cloudy
8:51 AM75.0 °F57.9 °F55 %30.24 in10.0 miSW (220°)6.9 mphMostly Cloudy
9:51 AM80.1 °F61.0 °F52 %30.23 in10.0 miSW (230°)11.5 mphScattered Clouds
10:51 AM84.0 °F64.0 °F51 %30.23 in10.0 miWSW (250°)12.7 mphScattered Clouds
11:51 AM84.9 °F64.0 °F49 %30.21 in10.0 miSW (230°)11.5 mph19.6 mphPartly Cloudy
12:51 PM87.1 °F66.0 °F49 %30.19 in10.0 miSW (230°)10.4 mph19.6 mphClear
1:51 PM88.0 °F66.9 °F49 %30.18 in10.0 miWSW (240°)15.0 mphPartly Cloudy
2:51 PM88.0 °F66.0 °F48 %30.17 in10.0 miSSW (210°)17.3 mph20.7 mphPartly Cloudy
3:51 PM89.1 °F66.9 °F48 %30.16 in10.0 miSW (230°)11.5 mph18.4 mphPartly Cloudy
4:51 PM88.0 °F66.9 °F49 %30.14 in10.0 miSW (220°)13.8 mphPartly Cloudy
5:51 PM87.1 °F66.9 °F51 %30.13 in10.0 miSSW (210°)12.7 mphClear
6:51 PM84.9 °F66.9 °F55 %30.12 in10.0 miSSW (210°)15.0 mphClear
7:51 PM82.9 °F66.9 °F58 %30.13 in10.0 miSW (220°)13.8 mphClear
8:51 PM81.0 °F66.9 °F62 %30.14 in10.0 miSSW (210°)8.1 mphClear
9:51 PM80.1 °F66.0 °F62 %30.15 in10.0 miSW (220°)10.4 mphClear
10:51 PM78.1 °F66.0 °F66 %30.15 in10.0 miSSW (210°)9.2 mphClear
11:51 PM77.0 °F64.9 °F66 %30.15 in10.0 miSW (220°)6.9 mphClear
Hourly data recorded from KORD, located miles away from Naperville, Illinois







STORIES FROM OUR PARTNERS